Regional Weather Roundup
Issued by NWS

Home | Current Version | Previous Version | Graphics & Text | Print | Product List | Glossary On
Versions: 1 2 3 4 5 6 7 8 9 10 11 12 13 14 15 16 17 18 19 20 21 22 23 24 25 26 27 28 29 30 31 32 33 34 35 36 37 38 39 40 41 42 43 44 45 46 47 48 49 50
130
ASUS43 KFSD 110902
RWRSD

WEATHER ROUNDUP FOR SOUTH DAKOTA
NATIONAL WEATHER SERVICE SIOUX FALLS SD
300 AM CST MON DEC 11 2017

NOTE: "FAIR" INDICATES FEW OR NO CLOUDS BELOW 12,000 FEET WITH NO
SIGNIFICANT WEATHER AND/OR OBSTRUCTIONS TO VISIBILITY.


SDZ001>005-009-010-012>017-111000-
NORTHWEST AND NORTH CENTRAL SOUTH DAKOTA

CITY           SKY/WX    TMP DP  RH WIND       PRES   REMARKS
BUFFALO          N/A     44  21  40 NW41G51   30.05S
FAITH            N/A     43  20  39 NW36G45   30.03F
MOBRIDGE       PTCLDY    42  26  53 NW25G33   29.90S
$$

SDZ012>016-024>037-041>051-057-063-072>074-111000-
SOUTHWEST AND SOUTH CENTRAL SOUTH DAKOTA

CITY           SKY/WX    TMP DP  RH WIND       PRES   REMARKS
RAPID CTY ARPT CLOUDY    50  14  23 NW35G45   30.15R
PIERRE         CLEAR     45  21  38 NW28G36   29.97R
CUSTER         CLOUDY    42  14  32 NW12G24   30.17S
ELLSWORTH AFB  CLOUDY    49  14  24 NW30G44   30.14R
PHILIP         CLOUDY    48  18  30 NW22G32   30.07R
PINE RIDGE     CLOUDY    38  18  44 CALM      30.19R
SPEARFISH      FAIR      45  18  33 W18G32    30.23S
WINNER         FAIR      50  18  28 W22G30    30.01S
$$

SDZ004>011-016>023-039-040-111000-
NORTHEAST SOUTH DAKOTA

CITY           SKY/WX    TMP DP  RH WIND       PRES   REMARKS
ABERDEEN       PTCLDY    39  24  55 W18G28    29.82R
WATERTOWN      PTCLDY    31  26  82 W10       29.77F WCI  22
BROOKINGS      PTCLDY    34  25  69 W6        29.82F WCI  29
SISSETON         N/A     42  27  55 W16       29.72F
$$

SDZ017-020-022-023-036>040-048>070-111000-
SOUTHEAST SOUTH DAKOTA

CITY           SKY/WX    TMP DP  RH WIND       PRES   REMARKS
SIOUX FALLS    PTCLDY    35  26  69 W6        29.85F
HURON          PTCLDY    38  25  59 W13       29.84F
CHAMBERLAIN    CLOUDY    38  23  53 W12       29.96F
MITCHELL       CLOUDY    37  25  61 W12       29.90F
YANKTON        CLEAR     39  21  48 W7        29.92F
$$

ABBREVIATIONS USED IN REMARKS
   TC - TEMPERATURE IN CELSIUS
  WCI - WIND CHILL INDEX
   HX - HEAT INDEX
  VSB - VISIBILITY





USA.gov is the U.S. government's official web portal to all federal, state and local government web resources and services.